Weather History for KMSL - February, 2013

Change the Weather History Date:

Wednesday, February 20, 2013

  Actual Average Record
Temperature  
Mean Temperature 35 °F 46 °F  
Max Temperature 39 °F 57 °F 79 °F (1917)
Min Temperature 30 °F 36 °F 15 °F (1958)
Degree Days  
Heating Degree Days 30 19  
Month to date heating degree days 405 417  
Since 1 July heating degree days 2078 2397  
Cooling Degree Days 0 0  
Month to date cooling degree days 0 0  
Year to date cooling degree days 7 0  
Moisture  
Dew Point 18 °F    
Average Humidity 61    
Maximum Humidity 78    
Minimum Humidity 44    
Precipitation  
Precipitation T in 0.16 in 2.51 in (1953)
Month to date precipitation 1.60 3.30  
Year to date precipitation 10.34 7.91  
Snow  
Snow 0.00 in - - ()
Month to date snowfall T  
Since 1 July snowfall T  
Snow Depth 0.00 in    
Sea Level Pressure  
Sea Level Pressure 30.27 in    
Wind  
Wind Speed 5 mph (NE)    
Max Wind Speed 13 mph    
Max Gust Speed 16 mph    
Visibility 10 miles    
Events      
T = Trace of Precipitation, MM = Missing Value Source: NWS Daily Summary

Daily Weather History Graph

Daily Weather History Graph

Search for Another Location

Airport or City:

Trip Planner

Search our weather history database for the weather conditions in past years. The results will help you decide how hot, cold, wet, or windy it might be!

Date:

Astronomy

Feb. 20, 2013 Rise Set
Actual Time 6:30 AM CST 5:38 PM CST
Civil Twilight 6:04 AM CST 6:04 PM CST
Nautical Twilight 5:35 AM CST 6:33 PM CST
Astronomical Twilight 5:05 AM CST 7:02 PM CST
Moon 1:06 PM CST (2/20) 2:42 AM CST (2/20)
Length of Visible Light 11h 59m
Length of Day
11h 08m
Waxing Gibbous, 76% of the Moon is Illuminated
Feb 20
Waxing Gibbous
Feb 25
Full
Mar 4
Last Quarter
Mar 11
New
Mar 19
First Quarter

Hourly Weather History & Observations

Time (CST) Temp. Windchill Dew Point Humidity Pressure Visibility Wind Dir Wind Speed Gust Speed Precip Events Conditions
12:53 AM 30.9 °F - 24.1 °F 76% 30.27 in 10.0 mi Calm Calm - N/A   Clear
1:53 AM 33.1 °F 28.7 °F 25.0 °F 72% 30.26 in 10.0 mi NW 4.6 mph - N/A   Clear
2:53 AM 34.0 °F 28.8 °F 21.9 °F 61% 30.25 in 10.0 mi North 5.8 mph - N/A   Clear
3:53 AM 34.0 °F 28.8 °F 19.0 °F 54% 30.27 in 10.0 mi North 5.8 mph - N/A   Clear
4:53 AM 33.1 °F 27.7 °F 16.0 °F 50% 30.28 in 10.0 mi North 5.8 mph - N/A   Clear
6:53 AM 30.9 °F 26.2 °F 18.0 °F 59% 30.30 in 10.0 mi NE 4.6 mph - N/A   Clear
7:53 AM 32.0 °F 24.2 °F 17.1 °F 54% 30.31 in 10.0 mi NE 9.2 mph - N/A   Clear
8:53 AM 33.1 °F 27.7 °F 17.1 °F 52% 30.33 in 10.0 mi NE 5.8 mph - N/A   Clear
9:53 AM 35.1 °F 28.6 °F 17.1 °F 48% 30.33 in 10.0 mi NNE 8.1 mph - N/A   Clear
10:53 AM 36.0 °F 32.1 °F 16.0 °F 44% 30.34 in 10.0 mi NE 4.6 mph - N/A   Clear
11:53 AM 36.0 °F 32.1 °F 17.1 °F 46% 30.33 in 10.0 mi North 4.6 mph - N/A   Partly Cloudy
12:53 PM 37.9 °F 35.5 °F 16.0 °F 41% 30.30 in 10.0 mi NNE 3.5 mph - N/A   Partly Cloudy
1:53 PM 37.9 °F 34.4 °F 16.0 °F 41% 30.30 in 10.0 mi ENE 4.6 mph - N/A   Partly Cloudy
2:53 PM 39.0 °F 36.8 °F 15.1 °F 38% 30.29 in 10.0 mi ENE 3.5 mph - N/A   Mostly Cloudy
3:53 PM 37.9 °F 34.4 °F 16.0 °F 41% 30.24 in 10.0 mi NE 4.6 mph - N/A   Overcast
4:53 PM 39.0 °F 34.0 °F 15.1 °F 38% 30.23 in 10.0 mi ENE 6.9 mph - N/A   Mostly Cloudy
5:53 PM 37.9 °F 33.5 °F 17.1 °F 43% 30.24 in 10.0 mi NE 5.8 mph - N/A   Mostly Cloudy
6:53 PM 37.9 °F 33.5 °F 18.0 °F 45% 30.24 in 10.0 mi NE 5.8 mph - N/A   Overcast
7:53 PM 37.9 °F 31.5 °F 18.0 °F 45% 30.22 in 10.0 mi NE 9.2 mph - 0.00 in   Overcast
8:53 PM 37.9 °F 32.1 °F 17.1 °F 43% 30.25 in 10.0 mi NE 8.1 mph - N/A   Overcast
9:53 PM 37.0 °F 32.4 °F 18.0 °F 46% 30.22 in 10.0 mi ENE 5.8 mph - N/A   Overcast
10:53 PM 37.0 °F 32.4 °F 19.0 °F 48% 30.22 in 10.0 mi ENE 5.8 mph - N/A   Overcast
11:53 PM 37.0 °F 33.3 °F 19.9 °F 50% 30.22 in 10.0 mi NE 4.6 mph - N/A   Overcast